This is the latest recevied weather packets stored in our database for station/object KB2SKP. If no packets are shown the sender has not sent any weather packets the latest 10 day(s).
| Time | Temp. | Humidity | Pressure | Rain* | Wind** | Luminosity | Snow |
|---|---|---|---|---|---|---|---|
| 1777748421 | 14.44° C | 49% | 1008.4 hPa | 0 mm | - | 126 W/m² | - |
| 1777748116 | 14.44° C | 49% | 1008.4 hPa | 0 mm | - | 152 W/m² | - |
| 1777747813 | 14.44° C | 49% | 1008.6 hPa | 0 mm | - | 141 W/m² | - |
| 1777747508 | 15° C | 49% | 1008.9 hPa | 0 mm | - | 147 W/m² | - |
| 1777747205 | 15° C | 49% | 1008.7 hPa | 0 mm | - | 129 W/m² | - |
| 1777746901 | 15° C | 49% | 1008.9 hPa | 0 mm | - | 187 W/m² | - |
| 1777746596 | 14.44° C | 47% | 1008.9 hPa | 0 mm | - | 61 W/m² | - |
| 1777746292 | 15° C | 45% | 1008.9 hPa | 0 mm | - | 123 W/m² | - |
| 1777745988 | 14.44° C | 49% | 1009.2 hPa | 0 mm | - | 180 W/m² | - |
| 1777745687 | 13.89° C | 44% | 1009.3 hPa | 0 mm | - | 178 W/m² | - |
| 1777745385 | 13.89° C | 44% | 1009.4 hPa | 0 mm | - | 142 W/m² | - |
| 1777745082 | 14.44° C | 44% | 1009.7 hPa | 0 mm | - | 137 W/m² | - |
| 1777744778 | 14.44° C | 41% | 1009.4 hPa | 0 mm | - | 130 W/m² | - |
| 1777744472 | 13.89° C | 40% | 1009.7 hPa | 0 mm | - | 103 W/m² | - |
| 1777744169 | 13.89° C | 42% | 1009.8 hPa | 0 mm | - | 100 W/m² | - |
| 1777743866 | 13.33° C | 52% | 1009.9 hPa | 0 mm | - | 98 W/m² | - |
| 1777743562 | 13.89° C | 52% | 1009.8 hPa | 0 mm | - | 98 W/m² | - |
| 1777743259 | 12.78° C | 51% | 1009.8 hPa | 0 mm | - | 120 W/m² | - |
| 1777742958 | 12.78° C | 49% | 1009.8 hPa | 0 mm | - | 124 W/m² | - |
| 1777742655 | 12.78° C | 46% | 1009.9 hPa | 0 mm | - | 134 W/m² | - |
| 1777742350 | 12.78° C | 47% | 1009.7 hPa | 0 mm | - | 101 W/m² | - |
| 1777742047 | 12.22° C | 44% | 1010.1 hPa | 0 mm | - | 118 W/m² | - |
| 1777741744 | 12.78° C | 46% | 1010 hPa | 0 mm | - | 81 W/m² | - |
| 1777741441 | 12.78° C | 52% | 1010 hPa | 0 mm | - | 98 W/m² | - |
| 1777741136 | 12.78° C | 56% | 1009.9 hPa | 0 mm | - | 97 W/m² | - |
* Rain latest hour (hover to see other rain measurements)
** Current wind speed in m/s (hover to see current wind gust speed)